Chignik, AK

6:07 PM AKDT on March 26, 2017 (GMT -0800)
Chignik

Weather History for PAJC - August, 2013

Change the Weather History Date:

Tuesday, August 27, 2013

  Actual Average Record
Temperature  
Mean Temperature 52 °F -  
Max Temperature 55 °F 54 °F 70 °F (2016)
Min Temperature 48 °F 48 °F 39 °F (1998)
Degree Days  
Heating Degree Days 14    
Growing Degree Days 2 (Base 50)    
Moisture  
Dew Point 43 °F    
Average Humidity 71    
Maximum Humidity 82    
Minimum Humidity 63    
Precipitation  
Precipitation 0.00 in - - ()
Sea Level Pressure  
Sea Level Pressure 29.94 in    
Wind  
Wind Speed 13 mph (WNW)    
Max Wind Speed 21 mph    
Max Gust Speed 26 mph    
Visibility 10 miles    
Events      
Averages and records for this station are not official NWS values.
T = Trace of Precipitation, MM = Missing Value Source: NWS Daily Summary

Daily Weather History Graph

Daily Weather History Graph

Search for Another Location

Airport or City:

Trip Planner

Search our weather history database for the weather conditions in past years. The results will help you decide how hot, cold, wet, or windy it might be!

Date:

Astronomy

Aug. 27, 2013 Rise Set
Actual Time 7:28 AM AKDT 9:40 PM AKDT
Civil Twilight 6:47 AM AKDT 10:20 PM AKDT
Nautical Twilight 5:55 AM AKDT 11:12 PM AKDT
Astronomical Twilight 4:51 AM AKDT 12:14 AM AKDT
Moon No Moon Rise 4:02 PM AKDT
Length of Visible Light 15h 33m
Length of Day
14h 11m
Waning Gibbous, 55% of the Moon is Illuminated
Aug 27
Waning Gibbous
Aug 28
Last Quarter
Sep 5
New
Sep 12
First Quarter
Sep 19
Full

Hourly Weather History & Observations

Time (AKDT) Temp. Dew Point Humidity Pressure Visibility Wind Dir Wind Speed Gust Speed Precip Events Conditions
12:16 AM 51.8 °F 42.8 °F 71% 29.84 in 10.0 mi West 10.4 mph - N/A   Clear
12:36 AM 50.0 °F 42.8 °F 76% 29.85 in 10.0 mi West 11.5 mph - N/A   Clear
12:56 AM 50.0 °F 42.8 °F 76% 29.87 in 10.0 mi WNW 13.8 mph - N/A   Clear
1:16 AM 50.0 °F 42.8 °F 76% 29.88 in 10.0 mi NW 13.8 mph 17.3 mph N/A   Clear
1:36 AM 51.8 °F 42.8 °F 71% 29.88 in 10.0 mi West 16.1 mph 26.5 mph N/A   Partly Cloudy
1:56 AM 51.8 °F 42.8 °F 71% 29.89 in 10.0 mi West 15.0 mph 20.7 mph N/A   Partly Cloudy
2:16 AM 51.8 °F 42.8 °F 71% 29.90 in 10.0 mi West 17.3 mph 24.2 mph N/A   Scattered Clouds
2:36 AM 51.8 °F 42.8 °F 71% 29.90 in 10.0 mi West 16.1 mph 21.9 mph N/A   Mostly Cloudy
2:56 AM 51.8 °F 42.8 °F 71% 29.90 in 10.0 mi West 15.0 mph 20.7 mph N/A   Overcast
3:16 AM 51.8 °F 42.8 °F 71% 29.90 in 10.0 mi West 19.6 mph 24.2 mph N/A   Overcast
3:36 AM 51.8 °F 44.6 °F 76% 29.90 in 10.0 mi West 18.4 mph 23.0 mph N/A   Mostly Cloudy
3:56 AM 51.8 °F 44.6 °F 76% 29.91 in 10.0 mi West 11.5 mph 23.0 mph N/A   Overcast
4:16 AM 51.8 °F 44.6 °F 76% 29.90 in 10.0 mi West 15.0 mph 21.9 mph N/A   Overcast
4:36 AM 51.8 °F 44.6 °F 76% 29.90 in 10.0 mi West 16.1 mph 21.9 mph N/A   Overcast
4:56 AM 51.8 °F 44.6 °F 76% 29.91 in 10.0 mi West 18.4 mph 24.2 mph N/A   Overcast
5:16 AM 51.8 °F 44.6 °F 76% 29.92 in 10.0 mi West 17.3 mph 23.0 mph N/A   Overcast
5:36 AM 51.8 °F 44.6 °F 76% 29.93 in 10.0 mi West 16.1 mph 21.9 mph N/A   Overcast
5:56 AM 51.8 °F 44.6 °F 76% 29.93 in 10.0 mi West 15.0 mph 19.6 mph N/A   Overcast
6:16 AM 51.8 °F 44.6 °F 76% 29.93 in 10.0 mi West 16.1 mph 20.7 mph N/A   Overcast
6:36 AM 51.8 °F 44.6 °F 76% 29.94 in 10.0 mi West 16.1 mph 19.6 mph N/A   Overcast
6:56 AM 51.8 °F 44.6 °F 76% 29.93 in 10.0 mi West 20.7 mph 26.5 mph N/A   Overcast
7:16 AM 51.8 °F 44.6 °F 76% 29.94 in 10.0 mi West 15.0 mph 24.2 mph N/A   Overcast
7:36 AM 51.8 °F 42.8 °F 71% 29.94 in 10.0 mi West 13.8 mph - N/A   Mostly Cloudy
7:56 AM 51.8 °F 42.8 °F 71% 29.95 in 10.0 mi West 10.4 mph 18.4 mph N/A   Overcast
8:16 AM 51.8 °F 42.8 °F 71% 29.95 in 10.0 mi West 12.7 mph 18.4 mph N/A   Overcast
8:36 AM 51.8 °F 42.8 °F 71% 29.95 in 10.0 mi WNW 11.5 mph - N/A   Overcast
8:56 AM 51.8 °F 42.8 °F 71% 29.95 in 10.0 mi NW 11.5 mph 20.7 mph N/A   Overcast
9:16 AM 51.8 °F 42.8 °F 71% 29.95 in 10.0 mi West 13.8 mph 23.0 mph N/A   Partly Cloudy
9:36 AM 51.8 °F 42.8 °F 71% 29.96 in 10.0 mi WNW 11.5 mph 20.7 mph N/A   Partly Cloudy
9:56 AM 51.8 °F 42.8 °F 71% 29.97 in 10.0 mi West 10.4 mph 18.4 mph N/A   Clear
10:16 AM 51.8 °F 41.0 °F 67% 29.96 in 10.0 mi WNW 16.1 mph 21.9 mph N/A   Clear
10:36 AM 51.8 °F 42.8 °F 71% 29.97 in 10.0 mi West 16.1 mph 24.2 mph N/A   Clear
10:56 AM 51.8 °F 41.0 °F 67% 29.97 in 10.0 mi WNW 13.8 mph 19.6 mph N/A   Clear
11:16 AM 53.6 °F 42.8 °F 67% 29.97 in 10.0 mi West 15.0 mph 20.7 mph N/A   Partly Cloudy
11:36 AM 53.6 °F 42.8 °F 67% 29.98 in 10.0 mi WNW 11.5 mph 18.4 mph N/A   Scattered Clouds
11:56 AM 51.8 °F 42.8 °F 71% 29.98 in 10.0 mi WNW 11.5 mph - N/A   Overcast
12:16 PM 51.8 °F 42.8 °F 71% 29.99 in 10.0 mi West 11.5 mph 18.4 mph N/A   Overcast
12:36 PM 51.8 °F 42.8 °F 71% 29.98 in 10.0 mi WNW 11.5 mph 16.1 mph N/A   Overcast
12:56 PM 53.6 °F 42.8 °F 67% 29.99 in 10.0 mi WNW 10.4 mph 19.6 mph N/A   Overcast
1:16 PM 53.6 °F 42.8 °F 67% 29.99 in 10.0 mi WNW 10.4 mph - N/A   Overcast
1:36 PM 53.6 °F 42.8 °F 67% 29.98 in 10.0 mi WNW 12.7 mph - N/A   Mostly Cloudy
1:56 PM 53.6 °F 42.8 °F 67% 29.99 in 10.0 mi West 9.2 mph - N/A   Scattered Clouds
2:16 PM 53.6 °F 42.8 °F 67% 29.98 in 10.0 mi WNW 11.5 mph 18.4 mph N/A   Mostly Cloudy
2:36 PM 55.4 °F 44.6 °F 67% 29.99 in 10.0 mi WNW 11.5 mph 17.3 mph N/A   Mostly Cloudy
2:56 PM 53.6 °F 42.8 °F 67% 29.99 in 10.0 mi West 12.7 mph 19.6 mph N/A   Mostly Cloudy
3:16 PM 53.6 °F 42.8 °F 67% 29.99 in 10.0 mi WNW 12.7 mph - N/A   Mostly Cloudy
3:36 PM 53.6 °F 44.6 °F 72% 29.99 in 10.0 mi WNW 12.7 mph 17.3 mph N/A   Mostly Cloudy
3:56 PM 55.4 °F 44.6 °F 67% 29.99 in 10.0 mi WNW 11.5 mph - N/A   Partly Cloudy
4:16 PM 55.4 °F 44.6 °F 67% 29.98 in 10.0 mi WNW 11.5 mph - N/A   Partly Cloudy
4:36 PM 55.4 °F 42.8 °F 63% 29.98 in 10.0 mi NW 9.2 mph - N/A   Scattered Clouds
4:56 PM 55.4 °F 42.8 °F 63% 29.97 in 10.0 mi NW 8.1 mph - N/A   Mostly Cloudy
5:16 PM 55.4 °F 42.8 °F 63% 29.97 in 10.0 mi WNW 9.2 mph - N/A   Scattered Clouds
5:36 PM 55.4 °F 44.6 °F 67% 29.97 in 10.0 mi NNW 9.2 mph - N/A   Partly Cloudy
5:56 PM 55.4 °F 44.6 °F 67% 29.96 in 10.0 mi NNW 9.2 mph - N/A   Partly Cloudy
6:16 PM 55.4 °F 42.8 °F 63% 29.95 in 10.0 mi NW 9.2 mph - N/A   Partly Cloudy
6:36 PM 53.6 °F 42.8 °F 67% 29.95 in 10.0 mi NW 9.2 mph - N/A   Partly Cloudy
6:56 PM 53.6 °F 42.8 °F 67% 29.95 in 10.0 mi NNW 6.9 mph - N/A   Clear
7:16 PM 53.6 °F 42.8 °F 67% 29.94 in 10.0 mi NW 9.2 mph - N/A   Clear
7:36 PM 53.6 °F 42.8 °F 67% 29.93 in 10.0 mi WNW 10.4 mph - N/A   Clear
7:56 PM 53.6 °F 42.8 °F 67% 29.94 in 10.0 mi NW 8.1 mph - N/A   Partly Cloudy
8:16 PM 51.8 °F 42.8 °F 71% 29.93 in 10.0 mi WNW 10.4 mph 16.1 mph N/A   Clear
8:36 PM 51.8 °F 42.8 °F 71% 29.93 in 10.0 mi WNW 8.1 mph - N/A   Clear
8:56 PM 51.8 °F 42.8 °F 71% 29.92 in 10.0 mi NW 5.8 mph - N/A   Mostly Cloudy
9:16 PM 51.8 °F 42.8 °F 71% 29.93 in 10.0 mi WNW 8.1 mph - N/A   Mostly Cloudy
9:36 PM 51.8 °F 42.8 °F 71% 29.93 in 10.0 mi WNW 6.9 mph - N/A   Overcast
9:56 PM 51.8 °F 42.8 °F 71% 29.93 in 10.0 mi NW 6.9 mph - N/A   Overcast
10:16 PM 51.8 °F 42.8 °F 71% 29.92 in 10.0 mi NW 4.6 mph - N/A   Mostly Cloudy
10:36 PM 51.8 °F 42.8 °F 71% 29.91 in 10.0 mi NW 8.1 mph - N/A   Mostly Cloudy
10:56 PM 50.0 °F 42.8 °F 76% 29.91 in 10.0 mi NW 4.6 mph - N/A   Overcast
11:16 PM 50.0 °F 44.6 °F 82% 29.91 in 10.0 mi Calm Calm - N/A   Overcast
11:36 PM 48.2 °F 42.8 °F 82% 29.91 in 10.0 mi Calm Calm - N/A   Scattered Clouds
11:56 PM 50.0 °F 42.8 °F 76% 29.90 in 10.0 mi ENE 4.6 mph - N/A   Clear